Weather History for Brownwood, TX

Change the Weather History Date:

Tuesday, April 30, 2013

  Actual Average (KABI) Record (KABI)
Temperature  
Mean Temperature 73 °F 69 °F  
Max Temperature 87 °F 81 °F 99 °F (1948)
Min Temperature 59 °F 56 °F 34 °F (1903)
Degree Days  
Heating Degree Days 0 2  
Month to date heating degree days 113  
Since 1 July heating degree days 2542  
Cooling Degree Days 8 5  
Month to date cooling degree days 99  
Year to date cooling degree days 133  
Growing Degree Days 23 (Base 50)    
Moisture  
Dew Point 58 °F    
Average Humidity 66    
Maximum Humidity 100    
Minimum Humidity 31    
Precipitation  
Precipitation 0.00 in 0.08 in 0.90 in (1974)
Month to date precipitation 1.64  
Year to date precipitation 5.76  
Sea Level Pressure  
Sea Level Pressure 29.78 in    
Wind  
Wind Speed 9 mph (SSE)    
Max Wind Speed 16 mph    
Max Gust Speed 23 mph    
Visibility 10 miles    
Events      
T = Trace of Precipitation, MM = Missing Value Source: NWS Daily Summary

Daily Weather History Graph

Daily Weather History Graph

Search for Another Location

Airport:

Trip Planner

Search our weather history database for the weather conditions in past years. The results will help you decide how hot, cold, wet, or windy it might be!

Date:

Astronomy

Apr. 30, 2013 Rise Set
Actual Time 6:50 AM CDT 8:15 PM CDT
Civil Twilight 6:25 AM CDT 8:41 PM CDT
Nautical Twilight 5:54 AM CDT 9:12 PM CDT
Astronomical Twilight 5:22 AM CDT 9:44 PM CDT
Moon 12:35 AM CDT (4/30) 11:24 AM CDT (4/30)
Length of Visible Light 14h 16m
Length of Day
13h 24m
Waning Gibbous, 70% of the Moon is Illuminated
Apr 30
Waning Gibbous
May 2
Last Quarter
May 9
New
May 17
First Quarter
May 24
Full

Hourly Weather History & Observations

Time (CDT) Temp. Heat Index Dew Point Humidity Pressure Visibility Wind Dir Wind Speed Gust Speed Precip Events Conditions
12:15 AM 66.2 °F - 59.0 °F 78% 29.84 in 10.0 mi SSE 9.2 mph 17.3 mph N/A   Clear
12:35 AM 66.2 °F - 59.0 °F 78% 29.83 in 10.0 mi SSE 9.2 mph - N/A   Clear
12:55 AM 64.4 °F - 59.0 °F 83% 29.83 in 10.0 mi SSE 6.9 mph - N/A   Clear
1:15 AM 64.4 °F - 59.0 °F 83% 29.83 in 10.0 mi SSE 6.9 mph - N/A   Clear
1:35 AM 64.4 °F - 59.0 °F 83% 29.82 in 10.0 mi SSE 6.9 mph - N/A   Clear
1:55 AM 62.6 °F - 59.0 °F 88% 29.81 in 10.0 mi SE 8.1 mph - N/A   Clear
2:15 AM 62.6 °F - 59.0 °F 88% 29.82 in 10.0 mi SE 5.8 mph - N/A   Clear
2:35 AM 62.6 °F - 59.0 °F 88% 29.81 in 10.0 mi SSE 4.6 mph - N/A   Clear
2:55 AM 60.8 °F - 59.0 °F 94% 29.81 in 10.0 mi SE 6.9 mph - N/A   Clear
3:15 AM 60.8 °F - 59.0 °F 94% 29.80 in 10.0 mi SSE 5.8 mph - N/A   Clear
3:35 AM 60.8 °F - 59.0 °F 94% 29.80 in 10.0 mi SE 6.9 mph - N/A   Clear
3:55 AM 60.8 °F - 59.0 °F 94% 29.80 in 10.0 mi SE 8.1 mph - N/A   Clear
4:15 AM 60.8 °F - 59.0 °F 94% 29.81 in 10.0 mi SSE 8.1 mph - N/A   Clear
4:35 AM 60.8 °F - 59.0 °F 94% 29.81 in 10.0 mi SSE 6.9 mph - N/A   Clear
4:55 AM 59.0 °F - 59.0 °F 100% 29.81 in 10.0 mi SSE 5.8 mph - N/A   Clear
5:15 AM 59.0 °F - 59.0 °F 100% 29.81 in 10.0 mi South 6.9 mph - N/A   Partly Cloudy
5:35 AM 59.0 °F - 59.0 °F 100% 29.81 in 8.0 mi SSE 6.9 mph - N/A   Mostly Cloudy
5:55 AM 60.8 °F - 59.0 °F 94% 29.81 in 6.0 mi SSE 9.2 mph - N/A   Overcast
6:15 AM 60.8 °F - 60.8 °F 100% 29.81 in 7.0 mi SSE 6.9 mph - N/A   Overcast
6:35 AM 60.8 °F - 60.8 °F 100% 29.82 in 8.0 mi SSE 6.9 mph - N/A   Overcast
6:55 AM 60.8 °F - 59.0 °F 94% 29.83 in 9.0 mi SSE 8.1 mph - N/A   Mostly Cloudy
7:15 AM 60.8 °F - 59.0 °F 94% 29.83 in 10.0 mi SSE 6.9 mph - N/A   Scattered Clouds
7:35 AM 62.6 °F - 59.0 °F 88% 29.83 in 10.0 mi SSE 6.9 mph - N/A   Partly Cloudy
7:55 AM 62.6 °F - 59.0 °F 88% 29.83 in 10.0 mi SSE 9.2 mph - N/A   Clear
8:15 AM 64.4 °F - 59.0 °F 83% 29.82 in 10.0 mi South 9.2 mph - N/A   Clear
8:35 AM 64.4 °F - 59.0 °F 83% 29.83 in 10.0 mi South 11.5 mph - N/A   Mostly Cloudy
8:55 AM 64.4 °F - 59.0 °F 83% 29.83 in 10.0 mi South 13.8 mph - N/A   Overcast
9:15 AM 64.4 °F - 59.0 °F 83% 29.83 in 10.0 mi South 11.5 mph - N/A   Overcast
9:35 AM 64.4 °F - 59.0 °F 83% 29.83 in 10.0 mi South 12.7 mph 16.1 mph N/A   Overcast
9:55 AM 64.4 °F - 59.0 °F 83% 29.83 in 10.0 mi South 12.7 mph - N/A   Overcast
10:15 AM 66.2 °F - 59.0 °F 78% 29.83 in 10.0 mi South 10.4 mph - N/A   Overcast
10:35 AM 68.0 °F - 59.0 °F 73% 29.82 in 10.0 mi South 9.2 mph - N/A   Overcast
10:55 AM 69.8 °F - 59.0 °F 68% 29.81 in 10.0 mi SSE 10.4 mph - N/A   Scattered Clouds
11:15 AM 73.4 °F - 59.0 °F 61% 29.81 in 10.0 mi South 5.8 mph 16.1 mph N/A   Partly Cloudy
11:35 AM 75.2 °F - 59.0 °F 57% 29.81 in 10.0 mi SSE 8.1 mph - N/A   Clear
11:55 AM 75.2 °F - 59.0 °F 57% 29.80 in 10.0 mi South 11.5 mph 16.1 mph N/A   Clear
12:15 PM 75.2 °F - 59.0 °F 57% 29.80 in 10.0 mi South 9.2 mph - N/A   Clear
12:35 PM 78.8 °F - 59.0 °F 51% 29.79 in 10.0 mi SSE 11.5 mph 18.4 mph N/A   Clear
12:55 PM 80.6 °F 81.1 °F 59.0 °F 48% 29.79 in 10.0 mi SSE 11.5 mph 17.3 mph N/A   Clear
1:15 PM 80.6 °F 81.1 °F 59.0 °F 48% 29.77 in 10.0 mi SE 9.2 mph 18.4 mph N/A   Clear
1:35 PM 82.4 °F 82.0 °F 57.2 °F 42% 29.77 in 10.0 mi SSE 12.7 mph - N/A   Clear
1:55 PM 82.4 °F 82.0 °F 57.2 °F 42% 29.76 in 10.0 mi SE 13.8 mph 19.6 mph N/A   Clear
2:15 PM 84.2 °F 83.0 °F 55.4 °F 37% 29.76 in 10.0 mi SSE 9.2 mph 18.4 mph N/A   Clear
2:35 PM 84.2 °F 83.0 °F 55.4 °F 37% 29.75 in 10.0 mi SSE 10.4 mph 17.3 mph N/A   Clear
2:55 PM 84.2 °F 83.0 °F 55.4 °F 37% 29.75 in 10.0 mi SE 13.8 mph 20.7 mph N/A   Clear
3:15 PM 86.0 °F 84.2 °F 53.6 °F 33% 29.74 in 10.0 mi South 13.8 mph 19.6 mph N/A   Clear
3:35 PM 86.0 °F 84.2 °F 53.6 °F 33% 29.73 in 10.0 mi ESE 16.1 mph 20.7 mph N/A   Clear
3:55 PM 86.0 °F - 51.8 °F 31% 29.73 in 10.0 mi SSE 10.4 mph - N/A   Clear
4:15 PM 87.8 °F 85.7 °F 53.6 °F 31% 29.72 in 10.0 mi SE 10.4 mph 18.4 mph N/A   Clear
4:35 PM 86.0 °F 84.2 °F 53.6 °F 33% 29.71 in 10.0 mi ESE 13.8 mph 21.9 mph N/A   Clear
4:55 PM 86.0 °F 84.2 °F 53.6 °F 33% 29.71 in 10.0 mi SSE 13.8 mph 20.7 mph N/A   Clear
5:15 PM 86.0 °F 84.2 °F 53.6 °F 33% 29.71 in 10.0 mi SSE 11.5 mph 16.1 mph N/A   Clear
5:35 PM 86.0 °F 84.2 °F 53.6 °F 33% 29.71 in 10.0 mi SSE 11.5 mph 19.6 mph N/A   Clear
5:55 PM 86.0 °F - 51.8 °F 31% 29.71 in 10.0 mi SSE 11.5 mph 18.4 mph N/A   Clear
6:15 PM 86.0 °F 84.2 °F 53.6 °F 33% 29.70 in 10.0 mi SE 11.5 mph 17.3 mph N/A   Clear
6:35 PM 84.2 °F 82.8 °F 53.6 °F 35% 29.70 in 10.0 mi SE 13.8 mph 21.9 mph N/A   Clear
7:15 PM 84.2 °F 82.8 °F 53.6 °F 35% 29.70 in 10.0 mi SE 12.7 mph - N/A   Clear
7:35 PM 82.4 °F 81.4 °F 53.6 °F 37% 29.71 in 10.0 mi SE 10.4 mph - N/A   Clear
7:55 PM 82.4 °F 81.7 °F 55.4 °F 39% 29.71 in 10.0 mi ESE 15.0 mph 21.9 mph N/A   Clear
8:15 PM 78.8 °F - 59.0 °F 51% 29.72 in 10.0 mi ESE 13.8 mph 19.6 mph N/A   Clear
8:35 PM 77.0 °F - 59.0 °F 54% 29.72 in 10.0 mi ESE 11.5 mph 21.9 mph N/A   Clear
8:55 PM 77.0 °F - 59.0 °F 54% 29.73 in 10.0 mi ESE 16.1 mph 23.0 mph N/A   Clear
9:15 PM 75.2 °F - 59.0 °F 57% 29.74 in 10.0 mi SE 13.8 mph - N/A   Clear
9:35 PM 75.2 °F - 59.0 °F 57% 29.75 in 10.0 mi SE 13.8 mph 21.9 mph N/A   Clear
9:55 PM 75.2 °F - 59.0 °F 57% 29.77 in 10.0 mi SE 12.7 mph 18.4 mph N/A   Clear
10:15 PM 73.4 °F - 59.0 °F 61% 29.78 in 10.0 mi SE 10.4 mph 18.4 mph N/A   Clear
10:35 PM 73.4 °F - 59.0 °F 61% 29.79 in 10.0 mi SE 11.5 mph - N/A   Clear
10:55 PM 73.4 °F - 59.0 °F 61% 29.79 in 10.0 mi SE 13.8 mph 18.4 mph N/A   Clear
11:15 PM 71.6 °F - 59.0 °F 64% 29.79 in 10.0 mi SE 9.2 mph 16.1 mph N/A   Clear
11:35 PM 71.6 °F - 59.0 °F 64% 29.80 in 10.0 mi SE 10.4 mph 16.1 mph N/A   Clear
11:55 PM 71.6 °F - 59.0 °F 64% 29.84 in 10.0 mi East 3.5 mph - N/A   Partly Cloudy